Location: Alma
(38.7220°N, 88.9090°W)
Time: 22:39:52
(UTC-06:00)

Vanguard 2 - Pass Details

Date: 20 November 2019
Orbit: 553 x 2938 km, 32.9° (Epoch: 14 December)

Event Time Altitude Azimuth Distance (km) Brightness Sun altitude
Rises 10:55:18 0° 267° (W) 4,516 11.4 30.6°
Reaches altitude 10° 10:59:03 10° 263° (W) 3,143 10.7 30.7°
Maximum altitude 11:05:50 45° 193° (SSW) 1,141 10.0 31.0°
Drops below altitude 10° 11:10:21 10° 120° (ESE) 2,090 10.4 31.1°
Sets 11:12:24 0° 113° (ESE) 2,869 10.9 31.2°
